Theta_e
315 314 314 314 314 314 313 312 311 310 310 310 310 311 311 312 313 313 313 313 312 312 313 314 316 318 319 320 320 320 318 316 316 315 314 313 311 310 309 309 310 313 319 323 326 328 330 330 329 329 328 328 329 328 327 326 326 323 320 319 317 313
317 316 315 314 314 314 314 313 312 312 311 311 311 311 311 313 314 313 313 313 313 313 314 313 314 315 316 317 318 319 320 319 318 317 317 316 315 312 310 309 309 312 317 323 326 328 331 330 329 330 328 328 329 327 327 328 328 326 323 321 320 316
320 319 318 316 315 314 313 314 313 313 313 312 312 312 312 313 313 314 314 315 316 318 320 320 319 318 318 317 316 317 319 320 320 319 319 319 319 317 314 311 309 310 315 321 326 329 331 331 330 331 330 329 328 327 328 328 327 327 325 324 323 321
322 322 322 320 317 314 313 313 313 313 313 313 313 313 313 313 313 314 316 318 320 324 327 328 328 327 326 324 321 318 317 318 319 320 320 319 320 320 319 316 312 309 312 319 325 329 331 332 331 330 330 330 329 328 329 327 326 326 326 327 326 324
324 325 326 324 321 318 316 316 316 315 315 315 315 315 314 313 314 316 318 320 323 327 330 330 329 330 330 330 330 328 324 320 319 319 320 320 320 320 321 320 318 313 310 315 323 328 330 332 331 330 331 331 331 330 329 327 326 326 327 329 328 326
325 326 327 325 323 322 321 321 322 321 321 320 320 320 317 316 318 319 321 324 327 329 330 329 329 330 331 331 332 332 330 328 325 321 319 319 319 320 321 321 321 318 312 312 320 326 328 330 330 330 330 330 331 331 330 330 330 328 328 330 329 329
327 327 327 325 324 325 325 325 326 326 326 325 324 323 321 320 321 324 327 329 331 330 330 329 329 330 331 331 331 331 331 331 331 329 324 319 318 319 320 321 321 321 318 314 317 323 327 330 328 327 327 327 330 332 331 332 332 331 330 330 330 330
332 331 329 327 326 326 327 327 328 328 328 328 328 326 325 327 328 329 331 332 332 332 331 330 331 331 331 332 332 332 331 331 331 332 331 325 319 318 318 320 320 322 321 319 319 321 323 324 324 326 328 328 330 331 331 332 332 331 331 331 331 331
336 335 334 332 330 328 328 330 331 331 331 331 332 331 331 332 333 333 333 333 332 333 333 333 333 333 332 332 333 333 333 333 332 332 333 331 326 320 317 318 320 320 322 323 324 324 322 320 323 329 331 331 330 330 331 331 331 331 331 331 331 331
337 337 336 336 334 332 332 333 334 334 334 334 334 334 334 334 334 334 334 333 332 332 333 334 333 333 332 332 333 333 333 333 333 333 333 333 332 328 320 317 318 319 321 322 324 327 327 326 328 332 333 332 331 331 331 331 331 332 331 331 331 331
337 337 337 337 336 335 334 335 335 335 335 336 335 335 334 335 334 334 334 334 333 333 333 332 332 332 332 331 331 331 332 331 332 333 333 332 333 332 326 321 320 321 321 321 322 325 327 329 331 334 335 334 332 331 331 331 332 332 331 331 331 331
337 337 337 336 336 336 335 335 335 335 335 335 335 335 335 335 334 334 333 333 333 333 333 332 331 331 331 330 330 330 330 330 331 331 332 332 332 333 331 328 326 325 325 324 325 325 326 327 329 332 334 334 334 333 332 332 332 332 332 331 331 331
336 336 336 336 336 335 335 335 335 335 335 334 334 334 334 333 332 332 332 332 332 331 331 331 330 330 330 330 330 330 330 330 331 330 331 331 331 332 332 332 330 329 329 328 327 327 328 327 327 329 332 333 333 333 332 332 332 332 331 331 331 331
335 335 335 335 334 334 334 334 335 335 333 331 331 331 332 332 331 331 331 331 331 331 331 331 331 331 331 330 330 329 330 330 330 330 329 330 330 330 330 331 331 330 330 329 329 328 328 328 328 328 329 330 331 331 332 332 331 331 331 331 331 330
334 334 334 334 333 333 333 333 333 333 331 330 331 331 331 331 331 331 330 331 331 331 331 332 332 332 331 330 330 330 330 330 330 329 328 328 328 328 328 329 329 330 329 329 329 329 329 329 329 328 328 328 329 329 330 331 331 331 331 331 331 330
334 334 334 334 333 332 332 332 331 331 332 333 334 333 333 332 331 332 331 330 330 330 330 331 332 332 332 331 331 331 331 331 331 330 329 328 327 327 328 328 328 329 329 329 329 329 329 330 330 330 329 329 329 329 330 331 331 331 330 330 331 331
335 335 334 334 333 333 333 332 332 332 333 335 334 334 333 332 332 332 331 330 330 330 329 331 332 333 333 333 333 332 332 332 331 330 330 329 329 328 328 328 328 328 328 329 329 328 328 329 330 331 330 330 330 330 331 331 331 331 330 330 330 330
336 335 334 334 334 334 333 333 333 333 333 334 334 334 334 333 333 333 331 330 330 329 330 330 331 333 333 333 333 333 332 331 330 330 330 331 330 330 329 329 329 329 329 329 329 329 328 328 330 330 329 330 331 330 331 331 331 331 331 330 330 330
336 335 335 334 334 334 334 334 334 334 334 334 334 334 334 334 334 333 332 330 330 330 330 330 331 332 333 333 333 333 332 331 331 331 331 331 331 330 330 329 329 329 330 330 330 329 328 328 328 328 327 328 330 331 331 331 331 332 332 331 330 329
336 336 336 336 336 336 335 335 336 336 335 335 335 335 335 335 334 333 332 332 331 331 331 332 333 333 333 332 332 332 331 330 332 332 331 331 331 330 331 330 330 330 330 330 330 330 330 329 328 328 328 328 328 330 330 331 331 331 332 331 331 330
336 336 336 336 337 336 336 336 337 337 336 336 336 335 335 335 334 334 333 333 332 332 332 333 333 333 332 332 331 331 331 331 332 332 330 330 329 329 330 331 332 332 331 331 331 331 331 331 331 330 330 329 329 330 330 330 330 330 331 331 331 331
336 336 336 336 336 336 336 336 336 336 336 336 335 335 335 334 334 334 334 333 333 332 332 332 332 332 332 331 330 330 330 331 332 332 331 331 328 327 329 330 331 331 331 332 331 331 332 332 332 332 331 331 330 330 330 330 330 329 329 330 330 330
336 336 336 336 336 336 336 335 336 335 336 335 335 335 334 334 333 333 333 333 333 332 332 332 332 332 331 330 329 329 330 331 331 332 332 332 330 329 330 330 330 330 331 332 332 331 331 332 332 332 332 332 331 330 330 330 329 329 329 329 329 329
335 335 336 336 336 336 335 335 335 335 335 335 335 335 335 334 334 334 334 333 333 333 333 332 332 332 331 331 330 330 330 330 331 332 332 332 332 331 331 331 331 332 332 332 331 330 330 331 332 332 332 332 332 331 331 330 330 329 329 329 329 329
334 334 335 335 334 334 334 334 333 333 334 334 334 334 335 334 334 334 334 334 333 333 333 332 332 331 331 330 330 330 331 331 331 332 333 332 332 331 331 332 332 333 332 332 331 331 331 331 331 332 332 331 331 331 331 331 330 330 330 330 329 329
334 334 334 333 332 333 333 333 332 332 332 333 333 333 333 333 332 333 333 333 333 333 332 332 332 331 331 330 330 330 330 331 331 332 332 331 331 331 331 332 332 332 332 332 332 332 332 331 331 332 331 331 331 331 331 331 331 330 330 330 330 329
333 333 333 332 332 333 334 334 333 332 332 332 333 333 333 332 332 333 333 332 332 332 332 331 331 331 331 331 330 331 331 330 331 331 331 331 331 331 331 331 332 332 332 332 332 332 331 331 331 331 331 331 331 331 331 331 330 330 330 330 330 330
332 332 331 331 331 332 333 334 333 333 333 333 333 333 332 332 332 332 332 332 331 331 331 331 331 331 331 331 331 331 331 331 331 331 331 331 331 331 331 331 331 331 331 331 331 331 330 330 330 330 330 330 330 330 330 330 329 330 330 330 330 330
331 331 330 330 330 330 331 331 332 332 333 333 333 333 332 331 331 331 330 330 330 330 330 330 330 330 330 330 330 331 331 331 331 331 330 330 331 331 330 330 330 330 330 329 329 329 329 329 329 329 329 329 329 329 329 329 329 329 330 329 329 329
330 329 329 328 328 327 327 329 330 330 331 331 332 332 332 331 330 329 329 329 329 329 328 328 329 329 329 329 330 330 331 331 331 330 330 329 330 330 329 329 329 329 328 328 328 328 328 328 328 328 328 327 327 328 329 329 329 329 329 329 329 329
328 326 324 324 324 324 324 325 327 328 329 329 329 329 330 329 329 328 328 328 328 327 327 327 328 328 328 329 330 330 330 330 330 330 329 329 328 328 327 327 328 328 328 328 328 328 328 328 328 327 327 326 326 326 327 328 328 328 328 329 329 329
323 321 319 319 319 320 322 323 324 325 326 326 326 327 326 326 326 325 325 325 326 326 327 327 327 326 326 328 328 329 329 329 329 328 328 327 327 327 327 327 327 327 327 327 327 327 327 327 327 327 326 326 325 325 326 327 328 328 328 328 328 329
319 318 317 317 316 317 319 321 322 323 323 324 324 324 323 323 323 322 322 322 322 323 323 323 324 324 326 326 327 326 326 326 326 325 325 325 326 327 328 327 327 327 326 326 325 326 326 325 326 326 325 325 324 324 324 326 327 328 327 327 328 329
317 316 316 316 315 315 316 317 319 320 321 321 322 322 322 321 321 320 319 318 319 319 320 320 321 322 323 323 323 323 323 323 323 323 324 325 326 326 327 327 326 325 324 323 323 324 324 324 324 324 324 324 323 323 324 325 327 327 327 327 327 328
316 315 315 315 315 314 314 315 316 317 318 318 319 319 319 318 318 318 318 318 318 319 319 319 319 319 320 320 321 321 321 321 322 322 323 323 324 325 325 324 323 322 322 323 324 324 324 324 324 324 324 324 323 324 325 325 326 327 328 327 328 328
315 314 314 314 313 313 313 313 314 314 315 315 316 316 315 315 315 316 316 316 317 318 318 318 318 319 319 319 319 319 319 320 320 321 322 322 322 323 323 322 322 322 323 323 323 324 324 324 324 324 325 325 324 324 325 325 326 327 328 328 327 328
314 314 313 313 313 312 312 312 312 313 313 314 314 314 314 314 314 314 314 315 316 317 317 317 317 318 319 319 319 319 319 319 319 319 320 320 321 321 322 323 323 323 323 323 324 324 324 324 324 323 324 325 326 325 325 325 326 327 327 328 328 328
Wind_Speed
13 13 12 12 12 12 12 12 11 11 10 10 10 9 8 8 8 8 8 8 8 7 6 5 4 4 3 2 3 4 4 4 4 4 4 5 5 6 7 8 10 13 15 15 14 13 12 10 8 6 6 4 3 3 3 3 4 4 4 5 6 7
13 12 12 11 11 11 11 11 10 10 10 10 9 9 9 9 8 8 8 8 7 6 5 4 3 1 1 0 1 2 3 3 3 3 3 3 3 4 5 6 8 12 15 15 15 15 13 11 9 7 7 7 5 4 4 4 5 5 5 7 7 8
13 12 11 10 10 10 10 10 10 9 9 9 9 9 9 9 9 8 8 7 7 6 5 4 4 3 2 2 2 1 1 1 2 2 2 2 1 2 2 4 6 10 14 16 17 16 15 13 10 8 8 8 6 4 4 5 6 6 5 7 9 9
13 12 11 10 9 9 9 9 9 9 8 8 7 8 9 9 9 8 8 6 5 4 3 3 3 3 2 3 4 4 3 2 3 3 3 2 2 1 1 2 4 7 12 16 18 18 17 14 12 9 8 8 7 5 5 6 7 6 6 7 9 10
12 12 11 9 9 8 8 8 8 7 7 6 5 6 7 8 8 8 7 5 4 3 2 0 1 1 1 2 2 4 4 4 5 5 5 5 4 4 3 3 3 5 9 14 17 18 17 16 13 10 9 8 8 7 7 7 7 7 7 8 9 10
11 11 10 9 9 8 7 7 6 5 5 4 4 4 5 6 6 6 5 3 3 2 2 3 2 2 2 1 1 2 3 4 6 7 7 7 7 7 6 5 5 5 7 11 15 17 17 16 14 11 10 10 9 9 8 8 7 7 7 8 10 10
11 11 10 9 8 7 7 6 5 4 4 4 4 4 4 4 5 4 4 4 3 3 3 4 4 4 4 3 3 3 3 5 5 6 8 9 9 9 8 7 7 7 7 9 12 15 15 15 13 11 11 11 11 10 9 9 8 9 8 8 10 11
11 10 9 8 7 7 6 6 5 4 4 4 4 4 4 3 4 5 5 5 5 5 5 5 6 6 5 5 5 5 5 6 6 6 7 8 10 10 10 10 9 9 10 10 11 12 14 15 13 10 9 10 12 12 11 10 10 11 11 10 11 11
11 10 9 8 7 7 6 6 5 4 4 4 4 4 5 5 5 6 7 7 7 7 7 8 7 8 7 6 6 7 7 7 7 7 6 7 9 10 10 11 11 11 12 12 12 12 14 15 14 11 9 9 11 12 12 11 12 13 13 12 12 12
11 10 9 8 7 7 7 6 6 6 5 4 5 5 6 6 6 6 7 8 8 8 8 8 8 9 8 8 8 8 8 8 8 8 7 7 8 10 10 10 11 12 13 14 14 14 14 15 14 13 12 11 11 13 14 13 14 15 16 14 13 13
11 10 10 8 8 7 7 6 6 6 5 5 6 6 6 6 6 6 7 8 8 8 7 7 7 9 9 9 8 8 8 8 8 9 9 9 8 9 10 11 11 12 13 15 15 15 16 16 16 14 13 12 13 14 16 16 15 15 16 15 14 14
11 11 9 8 8 7 6 6 6 5 5 6 7 7 6 6 6 6 7 7 7 8 7 7 7 8 9 8 7 7 7 8 9 9 10 10 9 9 10 11 11 12 13 14 15 15 16 17 17 16 15 15 15 17 18 19 17 15 16 17 16 16
11 10 9 8 7 7 7 6 6 6 6 6 6 6 5 5 5 5 5 6 7 7 7 7 7 8 7 7 6 6 7 7 8 8 9 10 10 11 10 11 12 13 14 14 15 14 15 16 17 18 18 18 18 19 21 22 21 17 17 19 18 18
10 10 8 8 7 7 7 6 6 6 5 5 5 5 4 4 4 4 5 5 6 6 6 6 7 7 7 7 6 6 6 6 7 8 8 9 11 12 12 12 13 14 14 15 15 15 16 17 17 18 19 21 22 21 22 24 23 21 19 20 19 18
9 8 8 8 7 7 7 6 5 5 5 4 4 4 4 3 3 4 5 5 5 5 5 6 7 7 8 8 8 8 7 7 7 8 9 10 11 12 13 14 14 15 16 16 16 16 17 18 18 19 20 22 24 23 23 24 26 25 22 21 20 20
7 7 7 7 7 8 7 6 6 5 5 4 4 4 4 4 4 5 5 6 6 6 5 6 7 7 8 8 9 9 9 9 8 9 10 11 12 13 14 14 15 16 17 17 17 18 18 19 19 19 19 21 24 24 24 25 28 28 26 23 24 24
7 6 6 6 6 6 6 6 6 5 5 5 5 5 6 6 6 7 7 7 7 8 7 7 7 8 9 9 9 9 9 9 10 10 11 11 12 13 14 15 15 16 17 18 18 19 19 19 19 19 19 20 23 24 24 25 27 29 28 25 25 26
6 6 6 6 6 5 5 5 5 4 4 5 5 6 7 7 8 8 8 7 8 8 9 8 8 9 11 10 9 9 9 10 11 12 11 11 12 13 15 16 17 17 18 19 19 19 19 18 19 20 20 20 22 24 25 26 26 27 28 26 25 25
7 7 6 6 5 5 5 5 5 5 5 5 7 8 8 8 9 9 9 8 9 9 10 10 10 11 12 12 10 9 10 12 12 12 12 12 12 12 14 16 18 18 19 20 20 20 20 20 21 22 22 21 23 24 25 26 26 27 26 27 27 26
7 7 6 6 5 5 7 7 7 6 6 7 7 8 8 9 9 9 9 9 10 11 12 12 11 12 12 11 11 11 12 13 12 11 12 13 12 13 14 16 17 18 19 20 21 21 20 21 22 24 24 23 23 25 26 26 27 28 28 28 28 27
8 8 7 7 7 8 9 9 8 7 7 8 8 9 9 9 9 9 9 9 10 11 11 11 11 12 12 12 12 12 13 13 12 13 13 13 13 13 14 16 17 18 19 20 21 20 19 20 23 25 26 25 24 25 27 28 28 29 29 29 28 28
8 8 8 8 9 10 10 10 10 9 8 8 9 10 10 10 10 10 10 9 10 10 10 10 11 12 13 14 14 13 13 13 13 14 14 13 13 14 14 15 17 17 18 19 20 20 19 20 22 24 26 27 26 25 26 28 29 30 30 30 30 30
7 7 8 8 10 11 11 11 11 10 10 9 9 9 9 10 10 9 9 9 9 8 8 9 10 12 13 14 14 15 15 14 14 15 16 15 15 15 15 15 16 17 17 18 20 21 20 21 21 22 24 25 26 26 27 27 28 29 29 29 30 31
7 7 7 8 9 11 12 11 11 12 12 12 11 10 9 9 9 8 8 8 8 8 8 9 9 11 12 13 15 16 16 16 16 15 16 16 17 17 16 16 16 17 18 19 21 22 23 22 22 21 20 21 23 23 24 25 26 27 26 26 27 28
8 7 7 8 10 12 12 12 12 13 13 13 14 13 11 11 10 8 8 8 9 10 10 11 11 12 13 14 16 16 17 17 17 15 16 17 17 18 17 17 18 18 19 20 21 23 24 24 23 22 21 23 22 19 22 24 24 25 25 24 24 24
8 8 9 10 11 12 13 13 13 14 14 15 15 16 15 14 13 12 12 11 12 12 12 12 12 13 14 15 15 16 17 17 17 16 17 18 18 18 18 18 18 19 19 19 20 23 25 25 24 24 24 26 25 24 27 29 26 25 26 26 25 24
9 10 11 12 12 13 13 14 15 16 17 18 18 18 18 18 17 15 15 15 16 16 15 13 12 12 12 13 13 14 16 17 16 16 17 18 18 18 18 18 18 18 19 18 19 23 25 25 26 27 26 27 28 29 31 32 31 29 27 26 26 26
11 13 15 16 17 16 16 16 16 17 16 16 18 20 21 21 20 19 18 19 20 19 18 16 15 14 13 13 13 13 14 15 15 15 16 16 17 18 18 18 19 19 20 20 21 23 25 25 26 28 28 27 29 30 31 32 32 30 29 30 29 27
13 17 20 21 21 20 19 18 19 19 16 15 16 17 19 21 21 22 22 22 22 21 20 19 18 18 17 17 17 16 16 17 17 17 16 16 16 17 19 20 21 22 22 23 23 24 26 26 26 27 27 27 28 29 30 31 31 30 32 33 32 30
16 20 23 24 23 21 19 18 19 20 19 17 17 17 18 20 22 23 23 23 23 22 21 21 20 20 20 19 18 18 18 19 20 19 19 18 18 18 20 22 23 23 23 24 25 25 26 28 28 28 27 27 27 28 30 31 31 31 31 32 33 33
18 17 16 16 17 18 18 17 17 18 19 19 20 20 21 22 23 24 24 24 23 21 21 23 23 22 20 19 19 19 20 20 21 21 21 21 21 22 23 24 25 25 25 26 27 28 29 30 31 31 29 28 28 29 30 31 32 33 33 33 33 34
10 6 5 6 7 10 13 15 16 17 18 19 20 21 22 23 24 24 23 22 21 21 22 23 23 22 21 21 22 22 22 23 23 23 22 22 22 23 25 26 27 27 28 29 30 30 31 32 32 33 32 31 30 30 31 31 31 33 35 35 35 35
1 2 4 6 6 4 5 9 13 14 16 17 18 19 20 20 21 19 18 16 15 15 16 17 18 20 21 22 22 23 23 24 24 23 22 22 22 22 24 26 27 28 29 31 32 33 33 34 34 33 33 33 32 31 32 31 31 33 34 34 35 36
3 4 6 7 8 7 3 2 7 10 12 15 16 17 17 17 16 14 12 11 10 10 10 10 11 13 17 18 19 20 21 22 23 24 24 24 24 24 25 26 27 29 31 32 33 33 33 33 33 33 32 33 33 32 33 32 32 33 34 33 33 34
5 6 7 8 8 8 7 4 1 3 6 8 9 10 11 10 10 9 9 8 7 8 8 8 9 10 13 15 16 17 19 20 22 23 24 25 25 25 25 26 27 29 30 30 29 28 28 28 29 30 31 31 31 31 32 32 31 31 33 33 32 33
6 7 8 8 8 8 7 6 4 3 2 3 4 4 5 5 6 7 7 7 7 9 9 10 11 11 13 16 16 16 18 19 21 22 23 23 23 22 22 24 25 26 25 23 23 24 24 25 26 27 27 28 28 29 31 31 29 29 29 30 30 31
6 7 7 7 7 6 5 5 5 5 4 3 3 3 4 4 5 5 5 5 5 7 8 9 10 10 12 15 16 16 17 17 19 21 21 20 19 19 19 21 22 22 21 21 21 22 22 24 25 26 26 26 27 28 30 29 28 27 27 28 29 29
Wind_Direction
158 160 167 171 175 176 173 170 170 171 171 173 174 176 179 180 184 184 185 180 172 174 179 180 185 198 198 163 143 139 138 133 133 129 128 130 131 136 138 142 158 169 174 175 176 177 180 200 219 230 244 246 252 284 318 349 359 353 354 355 352 346
156 159 164 167 173 174 174 171 171 174 174 179 179 182 186 185 189 188 184 176 165 162 158 155 154 170 237 198 137 147 147 142 146 138 129 125 125 136 143 144 156 173 180 181 181 180 183 201 217 227 242 248 254 276 302 325 340 340 345 347 347 345
157 159 160 163 169 171 173 172 172 176 179 184 187 189 189 189 193 190 183 174 165 158 147 130 108 81 29 3 8 8 180 183 188 178 169 161 141 134 151 154 154 172 184 187 187 185 184 197 214 223 240 251 258 272 287 303 320 330 341 342 342 341
160 160 160 163 168 169 170 170 172 173 180 185 186 187 189 194 194 187 180 177 180 176 159 120 95 75 50 27 10 357 340 306 266 245 234 231 222 194 184 187 168 171 185 191 192 190 188 195 208 219 238 256 264 272 278 289 304 315 333 339 337 338
163 164 164 167 170 172 172 171 170 169 178 181 175 178 186 195 191 184 184 192 212 221 234 35 58 41 39 51 27 357 339 324 303 283 265 254 247 233 222 224 209 184 186 195 197 197 195 197 205 216 236 257 268 272 278 289 301 306 324 337 335 336
167 168 168 173 177 180 179 177 176 172 179 183 184 184 185 196 194 188 203 225 232 240 265 296 316 318 329 343 360 337 324 319 310 302 288 271 258 246 233 225 225 213 191 194 200 203 203 201 204 215 234 252 261 269 280 290 300 300 313 327 328 332
172 175 175 180 187 188 186 186 189 186 188 196 203 204 188 196 206 209 236 256 257 265 276 291 297 301 304 299 300 302 315 315 302 298 297 287 272 258 245 233 226 225 209 193 196 203 206 204 205 215 233 248 253 259 273 284 294 295 300 311 315 320
177 179 181 185 194 194 193 195 198 200 200 208 213 214 204 211 231 238 253 258 265 275 276 282 287 292 292 293 295 292 303 309 301 288 288 292 286 274 257 244 234 230 223 208 197 200 205 207 210 218 228 242 252 257 265 277 289 293 296 300 303 307
177 181 185 188 197 197 201 204 207 211 207 215 219 227 233 245 255 253 257 255 263 271 270 275 280 285 286 291 294 288 292 300 303 291 280 284 286 285 272 253 242 235 232 225 214 209 212 213 218 227 229 237 251 258 262 270 283 290 293 295 295 296
175 181 187 193 201 200 204 209 215 218 215 222 229 243 247 255 267 267 266 259 263 269 271 274 276 282 287 295 296 291 293 297 301 297 287 281 278 281 276 264 252 242 239 236 230 225 224 225 228 234 234 237 248 258 262 268 278 286 289 289 288 287
175 183 190 197 201 196 198 205 215 222 222 228 239 251 254 263 276 285 281 269 269 274 279 282 282 284 289 294 296 296 298 302 307 306 299 289 280 276 272 269 261 251 245 242 240 236 236 236 237 240 242 245 249 255 260 267 276 283 287 284 282 282
179 184 189 193 193 191 195 204 213 220 218 222 236 248 254 267 278 285 283 277 280 283 288 291 288 285 286 291 294 298 300 306 311 308 304 296 286 278 271 269 264 259 255 253 252 247 247 246 244 245 248 255 259 260 259 261 268 276 281 281 280 281
181 182 184 187 191 192 196 205 213 221 224 225 235 246 255 267 274 280 281 284 290 293 296 294 289 284 284 291 296 302 304 310 311 304 301 296 288 281 272 268 265 261 260 261 262 259 259 257 253 251 252 261 269 269 262 256 257 260 268 273 274 277
179 176 177 183 192 193 196 203 211 228 240 245 247 247 254 264 272 281 283 291 298 300 302 297 294 291 291 299 306 312 316 315 310 302 295 288 282 278 271 267 264 263 263 264 265 265 267 267 266 262 261 267 272 271 266 259 255 253 256 263 265 267
173 173 176 179 185 186 193 201 213 233 245 256 259 256 265 276 281 282 281 287 291 295 302 301 300 300 302 309 313 319 324 320 312 304 295 286 279 275 273 271 270 270 270 271 272 273 273 274 274 271 270 272 273 273 268 260 255 253 253 255 258 261
172 177 181 180 181 178 183 193 207 223 233 245 258 274 282 291 298 290 283 281 282 287 292 295 297 300 306 312 318 322 324 321 314 305 297 291 288 284 283 281 281 281 280 280 280 281 281 281 280 278 276 274 273 275 271 261 253 253 254 254 257 260
178 190 190 189 190 183 182 190 201 212 222 237 255 282 290 296 306 298 289 282 280 283 282 290 300 309 315 317 320 322 319 313 304 298 294 293 293 291 290 288 287 287 286 286 285 286 286 285 284 282 281 278 274 273 272 266 257 253 253 254 259 260
195 203 198 198 202 202 202 206 217 225 238 253 266 286 296 299 303 297 291 287 287 289 288 296 304 310 317 316 315 317 315 308 300 299 298 296 296 293 292 292 290 290 288 288 288 288 287 285 283 282 281 279 276 272 270 271 267 259 253 254 260 261
205 209 209 217 220 224 236 239 244 254 263 273 279 288 297 301 303 298 290 288 291 295 298 301 301 303 308 310 312 316 313 306 304 306 306 304 301 294 291 289 289 290 289 289 289 290 290 289 286 283 282 279 277 274 271 271 272 269 263 260 260 259
201 209 217 230 243 248 253 258 262 271 277 283 287 289 294 300 306 303 294 292 291 293 297 297 296 296 300 307 310 309 306 306 306 306 307 308 306 301 295 290 289 289 289 289 289 290 292 292 289 286 284 282 279 277 275 272 270 269 267 265 261 258
202 215 223 230 243 249 255 263 266 267 269 276 282 282 284 289 296 296 293 293 290 291 292 290 289 291 296 305 307 305 306 307 306 303 303 307 307 304 299 294 292 291 291 291 289 290 292 291 290 289 287 287 283 278 276 275 272 270 268 266 263 259
207 221 230 238 245 252 259 263 264 266 269 274 280 281 281 283 287 289 290 289 290 292 292 290 291 294 299 304 306 310 311 310 306 303 303 306 305 303 299 296 295 293 293 293 291 291 291 292 291 292 294 293 288 284 279 276 273 271 268 267 266 263
201 213 226 240 248 257 261 262 268 274 282 287 288 291 293 293 293 297 299 298 299 301 300 298 297 298 300 302 306 310 312 311 309 305 301 300 300 301 302 301 299 296 296 295 294 292 292 293 290 292 295 292 291 291 288 283 277 273 271 269 268 266
211 221 231 247 256 262 263 264 270 273 282 287 288 293 296 296 298 307 312 310 311 313 311 306 300 299 300 300 303 306 309 309 308 305 300 298 298 299 301 301 299 298 297 296 295 296 295 294 291 291 290 288 290 289 285 285 285 282 278 273 269 266
239 246 250 263 267 270 270 268 269 269 274 279 280 280 277 274 279 290 299 305 315 321 321 314 305 300 296 295 299 303 306 305 304 303 300 300 301 301 302 300 300 299 297 297 298 298 296 295 293 289 283 282 283 280 279 286 290 288 284 278 274 270
266 272 272 275 278 282 283 283 280 276 274 277 280 280 278 278 282 290 295 299 308 315 321 323 319 311 301 297 297 299 299 299 300 300 300 302 304 305 305 304 303 301 299 299 299 297 295 295 293 288 282 280 279 278 280 283 284 284 284 281 277 272
275 282 286 287 287 286 287 289 289 287 285 285 285 285 285 287 290 294 297 298 299 301 305 310 316 318 312 304 300 297 296 296 296 296 298 302 304 305 304 303 303 300 298 296 295 294 293 295 296 293 290 287 283 281 280 280 279 281 281 278 275 272
275 284 291 290 287 283 281 283 283 284 287 284 283 284 284 286 287 286 288 291 294 296 299 299 300 303 304 303 300 297 295 296 297 296 297 301 302 302 301 301 299 295 295 293 291 291 293 296 297 296 296 294 290 286 284 283 283 280 276 273 271 269
274 283 287 286 285 281 277 276 273 273 274 275 276 277 279 281 281 281 284 287 288 292 295 296 296 295 295 295 295 295 294 294 296 297 297 299 300 300 300 299 298 296 295 294 293 293 293 295 295 295 296 295 295 293 290 287 285 282 275 270 267 265
275 280 282 280 279 277 273 269 266 264 264 267 269 269 272 274 275 278 281 283 287 290 292 292 292 292 292 292 291 292 291 291 292 293 293 294 295 298 298 297 298 298 298 299 299 297 295 294 293 293 293 293 294 294 292 287 283 280 276 271 268 266
280 281 283 281 275 271 268 265 261 259 259 262 264 265 267 269 271 272 273 276 280 282 285 288 289 289 288 287 286 286 287 288 289 290 291 291 293 295 296 296 298 299 300 299 298 297 295 295 295 295 294 293 291 290 290 286 283 279 275 273 269 265
279 286 310 321 294 271 261 257 257 258 259 260 262 264 267 269 271 273 275 276 272 268 271 276 280 281 280 280 281 282 283 284 285 287 289 290 291 292 293 295 296 297 296 295 294 294 293 293 294 294 294 293 291 288 286 285 285 281 275 273 271 266
278 25 19 17 14 347 264 245 248 253 256 261 264 267 270 274 277 283 289 291 287 278 274 274 273 271 272 276 279 280 280 281 282 284 287 288 289 289 291 293 293 294 294 293 293 292 291 291 290 290 290 290 289 287 285 284 286 283 275 273 270 266
54 39 27 24 28 34 40 236 241 247 254 259 265 270 273 276 280 287 295 303 310 309 303 298 285 277 277 280 283 285 285 285 285 287 288 288 287 287 289 292 294 295 295 295 295 294 292 292 291 291 290 290 289 288 286 284 286 284 279 275 272 268
60 44 31 27 31 42 51 54 360 266 267 269 273 279 283 286 283 285 291 296 300 301 298 297 295 295 293 289 288 290 290 290 290 290 290 289 288 289 291 294 296 297 297 298 298 296 294 294 294 292 290 288 286 285 284 284 283 281 279 276 273 272
66 52 39 30 29 39 47 49 47 30 346 309 304 309 317 318 306 302 303 300 298 297 298 297 299 301 296 292 294 295 295 296 296 296 295 295 293 292 293 295 296 297 300 301 300 297 296 296 296 296 295 293 288 283 282 282 281 278 276 275 272 270
80 67 50 30 26 34 39 45 46 41 24 5 8 14 16 9 351 341 332 320 312 307 308 308 307 308 300 299 305 307 305 304 304 304 303 302 300 297 295 295 296 299 304 306 305 303 302 301 299 298 299 298 295 291 286 281 279 277 275 275 272 268